Location: The Saddle
(36.8333°N, 80.3417°W)
Time: 06:11:46
(UTC-04:00)

Courier 1B - Pass Details

Date: 24 September 2024
Orbit: 962 x 1208 km, 28.3° (Epoch: 05 October)

Event Time Altitude Azimuth Distance (km) Brightness Sun altitude
Rises 12:02:38 0° 240° (WSW) 3,637 10.5 48.9°
Reaches altitude 10° 12:05:28 10° 231° (SW) 2,704 10.1 49.2°
Maximum altitude 12:11:17 35° 168° (SSE) 1,559 10.4 49.7°
Drops below altitude 10° 12:17:20 10° 105° (ESE) 2,822 10.4 50.2°
Sets 12:20:20 0° 97° (E) 3,815 10.8 50.4°
